Content
SEND FEEDBACK

Daily
Averages
Monthly
Summary
United States of America

VENUS, TEXAS


Home > North America > United States > Texas
Elevation: 200 meters     Latitude: 32 26N     Longitude: 097 06W

WEATHER
 
SELECT A DAY
Number of Records: 269,712;   Date Range: 7/10/03 - 12/27/14
 
SHARE

PRINT THIS DATA

[ ← Previous Day ]
WEATHER ALMANAC - 13 FEBRUARY, 2013
[ Next Day → ]
[ °F ]   °C
Weather ElementAverageHighLow
Temperature6.4 °C13 °C (4:55 pm)3 °C (3:35 am)
Dewpoint0.9 °C2 °C (12:35 am)-2 °C (3:55 pm)
Humidity70.7 %87 % (1:55 am)38 % (3:55 pm)
Barometer1019 hPa1022 hPa (10:15 am)1017.6 hPa (12:35 am)
Wind Speed10.6 km/h27.8 km/h (4:35 am)
Wind Gust40.7 km/h (1:15 am)
Weather ElementAverage
Visibility16.1 km
Wind DirectionSSW (204.6 °)

Weather ElementTotal
Precipitation---
Heating Degree Days10.3 (Base 18.3)
Averaged from 68 records on 13 February, 2013
WEATHER CONDITIONS BREAKOUT
WIND DIRECTION BREAKOUT
WEATHER BY HOUR - 13 FEBRUARY, 2013
[ °F ]   °C
Local TimeTemperatureDewpointHumidityBarometerVisibilityWind DirectionWind SpeedGust SpeedPrecipitationEventsConditions
12:35 AM5 °C2 °C81 %1017.6 hPa16.1 kmNW (310°)22.2 km/h35.2 km/hOvercast
1:15 AM5 °C2 °C81 %1017.9 hPa16.1 kmNW (310°)25.9 km/h40.7 km/hOvercast
1:35 AM5 °C2 °C81 %1018.3 hPa16.1 kmWNW (300°)25.9 km/h35.2 km/hOvercast
1:55 AM4 °C2 °C87 %1018.6 hPa16.1 kmNW (310°)18.5 km/h27.8 km/hOvercast
2:15 AM4 °C1 °C81 %1018.6 hPa16.1 kmNW (320°)22.2 km/hOvercast
2:35 AM4 °C1 °C81 %1018.6 hPa16.1 kmNW (310°)18.5 km/hOvercast
2:55 AM4 °C1 °C81 %1018.6 hPa16.1 kmWNW (300°)22.2 km/h29.6 km/hOvercast
3:15 AM4 °C1 °C81 %1018.6 hPa16.1 kmWNW (300°)20.4 km/h31.5 km/hOvercast
3:35 AM3 °C1 °C87 %1018.6 hPa16.1 kmNW (310°)18.5 km/h31.5 km/hMostly Cloudy
3:55 AM3 °C1 °C87 %1019 hPa16.1 kmNW (310°)20.4 km/h29.6 km/hOvercast
4:15 AM3 °C1 °C87 %1018.6 hPa16.1 kmNW (310°)24.1 km/h35.2 km/hOvercast
4:35 AM3 °C1 °C87 %1019 hPa16.1 kmNW (310°)27.8 km/h37 km/hOvercast
4:55 AM3 °C1 °C87 %1019 hPa16.1 kmNW (320°)22.2 km/h29.6 km/hOvercast
5:15 AM3 °C1 °C87 %1019 hPa16.1 kmNW (310°)18.5 km/hOvercast
5:35 AM3 °C1 °C87 %1019.3 hPa16.1 kmNW (310°)20.4 km/hOvercast
5:55 AM3 °C1 °C87 %1019.3 hPa16.1 kmNW (310°)14.8 km/h25.9 km/hOvercast
6:15 AM3 °C1 °C87 %1019.6 hPa16.1 kmNW (320°)14.8 km/hOvercast
6:35 AM3 °C1 °C87 %1019.6 hPa16.1 kmNNW (330°)18.5 km/hOvercast
6:55 AM3 °C1 °C87 %1019.6 hPa16.1 kmNNW (330°)14.8 km/hOvercast
7:15 AM3 °C1 °C87 %1020 hPa16.1 kmNNW (340°)9.3 km/hOvercast
7:35 AM3 °C1 °C87 %1020.3 hPa16.1 kmNW (320°)18.5 km/hOvercast
7:55 AM3 °C1 °C87 %1020.7 hPa16.1 kmNW (310°)14.8 km/hOvercast
8:15 AM3 °C1 °C87 %1020.7 hPa16.1 kmNW (310°)14.8 km/hOvercast
8:35 AM3 °C1 °C87 %1021 hPa16.1 kmWNW (300°)13 km/hOvercast
8:55 AM3 °C1 °C87 %1021 hPa16.1 kmNNW (340°)11.1 km/hOvercast
9:15 AM3 °C1 °C87 %1021.3 hPa16.1 kmNNW (340°)7.4 km/hOvercast
9:35 AM4 °C1 °C81 %1021.7 hPa16.1 kmWNW (290°)9.3 km/hOvercast
10:15 AM4 °C1 °C81 %1022 hPa16.1 kmWNW (290°)9.3 km/hOvercast
10:35 AM5 °C1 °C76 %1022 hPa16.1 kmWNW (300°)7.4 km/hOvercast
10:55 AM5 °C1 °C76 %1022 hPa16.1 kmCalmMostly Cloudy
11:15 AM6 °C1 °C70 %1021.7 hPa16.1 kmNNW (330°)13 km/hMostly Cloudy
11:35 AM7 °C1 °C66 %1021.7 hPa16.1 kmNorth (360°)11.1 km/hScattered Clouds
11:55 AM7 °C1 °C66 %1021.3 hPa16.1 kmCalmScattered Clouds
12:15 PM8 °C2 °C66 %1021 hPa16.1 kmCalmClear
12:35 PM8 °C1 °C62 %1020.7 hPa16.1 kmNNE (30°)5.6 km/hClear
12:55 PM9 °C1 °C58 %1020.3 hPa16.1 kmNW (320°)7.4 km/hClear
1:15 PM10 °C1 °C54 %1020 hPa16.1 kmWest (280°)7.4 km/hClear
1:35 PM10 °C0 °C50 %1019.3 hPa16.1 kmWest (280°)5.6 km/hClear
1:55 PM11 °C1 °C50 %1019 hPa16.1 kmNE (40°)5.6 km/hClear
2:15 PM11 °C0 °C47 %1018.6 hPa16.1 kmCalmClear
2:35 PM11 °C0 °C47 %1018.6 hPa16.1 kmCalmClear
2:55 PM11 °C0 °C47 %1017.9 hPa16.1 kmCalmClear
3:15 PM12 °C-1 °C41 %1017.9 hPa16.1 kmCalmClear
3:35 PM12 °C-1 °C41 %1017.9 hPa16.1 kmCalmClear
3:55 PM12 °C-2 °C38 %1017.6 hPa16.1 kmSSW (210°)5.6 km/hClear
4:15 PM12 °C-2 °C38 %1017.6 hPa16.1 kmCalmClear
4:35 PM12 °C-1 °C41 %1017.6 hPa16.1 kmCalmClear
4:55 PM13 °C-1 °C38 %1017.6 hPa16.1 kmWSW (240°)9.3 km/hClear
5:15 PM12 °C-1 °C41 %1017.6 hPa16.1 kmCalmClear
5:35 PM12 °C-1 °C41 %1017.6 hPa16.1 kmCalmClear
5:55 PM12 °C-1 °C41 %1017.6 hPa16.1 kmCalmClear
6:15 PM11 °C1 °C50 %1017.6 hPa16.1 kmSouth (180°)5.6 km/hClear
6:35 PM10 °C1 °C54 %1017.6 hPa16.1 kmSSE (150°)5.6 km/hClear
6:55 PM9 °C1 °C58 %1017.6 hPa16.1 kmSSE (160°)7.4 km/hClear
7:15 PM8 °C1 °C62 %1017.6 hPa16.1 kmSSE (150°)9.3 km/hClear
7:35 PM8 °C1 °C62 %1017.6 hPa16.1 kmSSE (150°)7.4 km/hClear
7:55 PM7 °C2 °C71 %1017.6 hPa16.1 kmSSE (160°)9.3 km/hClear
8:15 PM6 °C2 °C76 %1017.6 hPa16.1 kmSSE (160°)9.3 km/hClear
8:35 PM6 °C2 °C76 %1017.9 hPa16.1 kmSSE (160°)11.1 km/hClear
8:55 PM6 °C2 °C76 %1017.9 hPa16.1 kmSSE (150°)9.3 km/hClear
9:15 PM6 °C2 °C76 %1017.9 hPa16.1 kmSSE (160°)9.3 km/hClear
9:35 PM6 °C2 °C76 %1017.9 hPa16.1 kmSSE (160°)9.3 km/hClear
10:15 PM5 °C2 °C81 %1018.3 hPa16.1 kmSouth (170°)9.3 km/hClear
10:35 PM5 °C2 °C81 %1018.6 hPa16.1 kmSSE (160°)7.4 km/hClear
10:55 PM5 °C2 °C81 %1018.3 hPa16.1 kmSouth (170°)9.3 km/hClear
11:15 PM5 °C2 °C81 %1018.3 hPa16.1 kmSSE (160°)9.3 km/hClear
11:35 PM4 °C2 °C87 %1018.6 hPa16.1 kmSouth (170°)7.4 km/hClear
11:55 PM4 °C1 °C81 %1018.6 hPa16.1 kmSouth (180°)9.3 km/hClear
Hourly data recorded from KJWY, located 0 kilometers away from Venus, Texas







STORIES FROM OUR PARTNERS